TimeEDT,TemperatureF,Dew PointF,Humidity,Sea Level PressureIn,VisibilityMPH,Wind Direction,Wind SpeedMPH,Gust SpeedMPH,PrecipitationIn,Events,Conditions,WindDirDegrees,DateUTC
12:52 AM,28.9,17.1,61,30.00,10.0,West,11.5,18.4,N/A,,Clear,260,2013-03-20 04:52:00
1:52 AM,28.0,17.1,63,29.99,10.0,West,11.5,-,N/A,,Clear,260,2013-03-20 05:52:00
2:52 AM,28.0,17.1,63,29.99,10.0,West,11.5,19.6,N/A,,Clear,260,2013-03-20 06:52:00
3:52 AM,27.0,16.0,63,29.98,10.0,West,11.5,-,N/A,,Clear,260,2013-03-20 07:52:00
4:52 AM,26.1,16.0,66,29.98,10.0,West,9.2,17.3,N/A,,Clear,270,2013-03-20 08:52:00
5:52 AM,26.1,16.0,66,29.98,10.0,WSW,9.2,-,N/A,,Mostly Cloudy,250,2013-03-20 09:52:00
6:52 AM,25.0,15.1,66,29.97,10.0,WSW,6.9,-,N/A,,Mostly Cloudy,240,2013-03-20 10:52:00
7:52 AM,25.0,15.1,66,29.97,10.0,WSW,5.8,-,N/A,,Overcast,250,2013-03-20 11:52:00
8:52 AM,26.1,15.1,63,29.97,10.0,WSW,10.4,-,N/A,,Overcast,250,2013-03-20 12:52:00
9:52 AM,26.1,18.0,71,29.96,10.0,West,11.5,19.6,N/A,,Mostly Cloudy,260,2013-03-20 13:52:00
10:00 AM,26.6,17.6,69,29.92,10.0,WSW,10.4,17.3,N/A,,Mostly Cloudy,250,2013-03-20 14:00:00
10:52 AM,27.0,17.1,66,29.96,10.0,WSW,11.5,-,N/A,,Overcast,240,2013-03-20 14:52:00
11:41 AM,30.2,15.8,55,29.91,10.0,West,12.7,20.7,0.00,,Overcast,260,2013-03-20 15:41:00
11:52 AM,28.0,16.0,61,29.95,10.0,WSW,13.8,20.7,0.00,,Overcast,240,2013-03-20 15:52:00
12:52 PM,27.0,15.1,61,29.95,10.0,WSW,16.1,20.7,N/A,,Overcast,240,2013-03-20 16:52:00
1:52 PM,28.9,18.0,64,29.94,8.0,West,15.0,20.7,0.00,Snow,Light Snow,260,2013-03-20 17:52:00
2:52 PM,27.0,19.0,72,29.93,3.0,West,9.2,21.9,0.00,Snow,Light Snow,260,2013-03-20 18:52:00
3:06 PM,26.6,19.4,74,29.88,2.0,WSW,15.0,24.2,0.00,Snow,Light Snow,250,2013-03-20 19:06:00
3:14 PM,28.4,21.2,74,29.88,1.2,West,15.0,-,0.00,Snow,Light Snow,260,2013-03-20 19:14:00
3:18 PM,28.4,21.2,74,29.87,2.0,WSW,12.7,18.4,0.00,Snow,Light Snow,240,2013-03-20 19:18:00
3:24 PM,26.6,19.4,74,29.88,3.0,WSW,11.5,18.4,0.00,Snow,Light Snow,240,2013-03-20 19:24:00
3:26 PM,26.6,19.4,74,29.88,1.8,WSW,13.8,-,0.00,Snow,Light Snow,240,2013-03-20 19:26:00
3:45 PM,28.4,17.6,64,29.87,3.0,West,12.7,20.7,0.00,Snow,Light Snow,260,2013-03-20 19:45:00
3:52 PM,28.0,17.1,63,29.92,9.0,West,10.4,18.4,0.00,,Overcast,260,2013-03-20 19:52:00
4:52 PM,27.0,18.0,69,29.92,7.0,West,10.4,18.4,0.00,Snow,Light Snow,260,2013-03-20 20:52:00
5:52 PM,27.0,16.0,63,29.92,10.0,West,13.8,21.9,0.00,,Overcast,270,2013-03-20 21:52:00
6:38 PM,26.6,17.6,69,29.88,2.0,WNW,12.7,21.9,0.00,Snow,Light Snow,290,2013-03-20 22:38:00
6:45 PM,24.8,17.6,74,29.88,1.0,West,5.8,21.9,0.00,Snow,Light Snow,270,2013-03-20 22:45:00
6:50 PM,24.8,17.6,74,29.88,3.0,West,10.4,17.3,0.00,Snow,Light Snow,280,2013-03-20 22:50:00
6:52 PM,26.6,15.8,64,29.88,7.0,West,9.2,17.3,N/A,,Overcast,280,2013-03-20 22:52:00
7:02 PM,26.6,15.8,64,29.88,10.0,West,9.2,18.4,N/A,,Overcast,280,2013-03-20 23:02:00
7:10 PM,24.8,15.8,69,29.88,10.0,West,12.7,18.4,N/A,,Overcast,280,2013-03-20 23:10:00
7:30 PM,24.8,15.8,69,29.89,9.0,West,11.5,17.3,0.00,,Overcast,270,2013-03-20 23:30:00
7:40 PM,24.8,15.8,69,29.89,10.0,West,12.7,21.9,0.00,,Overcast,270,2013-03-20 23:40:00
7:52 PM,24.1,17.1,75,29.95,10.0,West,10.4,19.6,0.00,,Overcast,280,2013-03-20 23:52:00
8:52 PM,23.0,16.0,74,29.96,10.0,WNW,9.2,18.4,0.00,,Overcast,290,2013-03-21 00:52:00
9:52 PM,21.0,16.0,81,29.96,10.0,West,10.4,-,N/A,,Overcast,280,2013-03-21 01:52:00
10:52 PM,19.9,14.0,78,29.96,10.0,West,8.1,-,0.00,,Mostly Cloudy,280,2013-03-21 02:52:00
11:52 PM,19.0,10.0,68,29.96,10.0,NW,8.1,-,N/A,,Clear,310,2013-03-21 03:52:00